This is the latest recevied weather packets stored in our database for station/object SM4JDW-10. If no packets are shown the sender has not sent any weather packets the latest 10 day(s).
| Time | Temp. | Humidity | Pressure | Rain* | Wind** | Luminosity | Snow |
|---|---|---|---|---|---|---|---|
| 1788230292 | 12.78° C | 80% | 1005.2 hPa | - | - | - | - |
| 1788228491 | 12.78° C | 79% | 1005 hPa | - | - | - | - |
| 1788226691 | 13.33° C | 79% | 1004.7 hPa | - | - | - | - |
| 1788224891 | 13.33° C | 79% | 1004.4 hPa | - | - | - | - |
| 1788223091 | 13.33° C | 80% | 1004.3 hPa | - | - | - | - |
| 1788221308 | 13.33° C | 79% | 1004.3 hPa | - | - | - | - |
| 1788219491 | 13.89° C | 78% | 1004.2 hPa | - | - | - | - |
| 1788215891 | 13.89° C | 79% | 1004.3 hPa | - | - | - | - |
| 1788214091 | 13.89° C | 78% | 1004.2 hPa | - | - | - | - |
| 1788212291 | 14.44° C | 77% | 1004 hPa | - | - | - | - |
| 1788210491 | 14.44° C | 75% | 1003.8 hPa | - | - | - | - |
| 1788208691 | 15° C | 74% | 1003.8 hPa | - | - | - | - |
| 1788206891 | 15° C | 73% | 1003.8 hPa | - | - | - | - |
| 1788205091 | 15.56° C | 72% | 1003.7 hPa | - | - | - | - |
| 1788203290 | 16.11° C | 71% | 1003.6 hPa | - | - | - | - |
| 1788201491 | 16.67° C | 70% | 1003.6 hPa | - | - | - | - |
| 1788199690 | 16.67° C | 69% | 1003.3 hPa | - | - | - | - |
| 1788197890 | 17.22° C | 68% | 1003.1 hPa | - | - | - | - |
| 1788196090 | 17.78° C | 68% | 1002.8 hPa | - | - | - | - |
| 1788194290 | 18.33° C | 66% | 1002.6 hPa | - | - | - | - |
| 1788192490 | 18.33° C | 66% | 1002.4 hPa | - | - | - | - |
| 1788190690 | 18.89° C | 66% | 1002.3 hPa | - | - | - | - |
| 1788188890 | 18.89° C | 65% | 1002.3 hPa | - | - | - | - |
| 1788187090 | 19.44° C | 64% | 1002.2 hPa | - | - | - | - |
| 1788185290 | 19.44° C | 62% | 1002.3 hPa | - | - | - | - |
* Rain since midnight (hover to see other rain measurements)
** Current wind speed in m/s (hover to see current wind gust speed)